| time (UTC) | temp F | wind direction | speed knots | gust knots | rain 1hr in | rain 24hr in | rain mn in | humidity % | barometer mb |
| 20260509064453 | 66 | 180 | 0.0 | 0.9 | 0.00 | 0.00 | 0.00 | 57 | 1023.3 |
| 20260509063954 | 66 | 45 | 0.0 | 0.0 | 0.00 | 0.00 | 0.00 | 57 | 1023.3 |
| 20260509063456 | 66 | 225 | 0.0 | 0.9 | 0.00 | 0.00 | 0.00 | 56 | 1023.3 |
| 20260509062957 | 66 | 90 | 0.0 | 1.7 | 0.00 | 0.00 | 0.00 | 56 | 1023.2 |
| 20260509062458 | 68 | 180 | 0.0 | 1.7 | 0.00 | 0.00 | 0.00 | 55 | 1023.2 |
| 20260509061959 | 67 | 180 | 0.9 | 2.6 | 0.00 | 0.00 | 0.00 | 56 | 1023.1 |
| 20260509061459 | 66 | 225 | 0.0 | 0.9 | 0.00 | 0.00 | 0.00 | 55 | 1023.1 |
| 20260509061001 | 66 | 315 | 0.9 | 1.7 | 0.00 | 0.00 | 0.00 | 55 | 1023.1 |
| 20260509060502 | 66 | 315 | 0.9 | 1.7 | 0.00 | 0.00 | 0.00 | 55 | 1023.1 |
| 20260509060003 | 66 | 180 | 0.0 | 1.7 | 0.00 | 0.00 | 0.00 | 54 | 1023.0 |
| 20260509055458 | 66 | 225 | 0.0 | 1.7 | 0.00 | 0.00 | 0.00 | 54 | 1022.9 |
| 20260509054451 | 68 | 225 | 0.0 | 0.9 | 0.00 | 0.00 | 0.00 | 52 | 1022.9 |
| 20260509053953 | 68 | 90 | 0.0 | 1.7 | 0.00 | 0.00 | 0.00 | 52 | 1022.9 |
| 20260509053453 | 68 | 225 | 0.0 | 3.5 | 0.00 | 0.00 | 0.00 | 52 | 1022.8 |
| 20260509052955 | 68 | 225 | 0.9 | 1.7 | 0.00 | 0.00 | 0.00 | 52 | 1022.8 |
| 20260509052450 | 68 | 225 | 0.0 | 0.9 | 0.00 | 0.00 | 0.00 | 52 | 1022.7 |
| 20260509051711 | 68 | 180 | 0.0 | 0.9 | 0.00 | 0.00 | 0.00 | 51 | 1022.7 |
| 20260509050938 | 69 | 180 | 0.9 | 2.6 | 0.00 | 0.00 | 0.00 | 51 | 1022.7 |
| 20260509050439 | 69 | 315 | 0.0 | 1.7 | 0.00 | 0.00 | 0.00 | 50 | 1022.8 |
| 20260509045940 | 69 | 315 | 0.0 | 0.9 | 0.00 | 0.00 | 0.00 | 51 | 1022.7 |
| 20260509045441 | 69 | 90 | 0.0 | 0.9 | 0.00 | 0.00 | 0.00 | 51 | 1022.7 |
| 20260509044941 | 68 | 90 | 0.9 | 1.7 | 0.00 | 0.00 | 0.00 | 51 | 1022.7 |
| 20260509044436 | 69 | 225 | 0.0 | 1.7 | 0.00 | 0.00 | 0.00 | 50 | 1022.6 |
| 20260509043657 | 69 | 180 | 0.0 | 1.7 | 0.00 | 0.00 | 0.00 | 49 | 1022.7 |
| 20260509042925 | 69 | 225 | 0.9 | 1.7 | 0.00 | 0.00 | 0.00 | 50 | 1022.6 |
| 20260509042426 | 69 | 0 | 0.0 | 0.9 | 0.00 | 0.00 | 0.00 | 50 | 1022.6 |
| 20260509041926 | 69 | 135 | 0.9 | 1.7 | 0.00 | 0.00 | 0.00 | 50 | 1022.6 |
| 20260509041427 | 69 | 180 | 0.9 | 1.7 | 0.00 | 0.00 | 0.00 | 50 | 1022.6 |
| 20260509040929 | 69 | 0 | 0.0 | 0.9 | 0.00 | 0.00 | 0.00 | 50 | 1022.6 |
| 20260509040430 | 69 | 180 | 0.0 | 1.7 | 0.00 | 0.00 | 0.00 | 50 | 1022.6 |
| 20260509035931 | 69 | 270 | 0.9 | 1.7 | 0.00 | 0.00 | 0.00 | 50 | 1022.6 |
| 20260509035432 | 69 | 225 | 0.0 | 0.9 | 0.00 | 0.00 | 0.00 | 50 | 1022.6 |
| 20260509034926 | 69 | 180 | 0.0 | 1.7 | 0.00 | 0.00 | 0.00 | 50 | 1022.6 |
| 20260509034154 | 69 | 0 | 0.0 | 1.7 | 0.00 | 0.00 | 0.00 | 46 | 1022.7 |
| 20260509033649 | 70 | 135 | 0.9 | 2.6 | 0.00 | 0.00 | 0.00 | 45 | 1022.7 |
| 20260509032910 | 70 | 225 | 0.0 | 1.7 | 0.00 | 0.00 | 0.00 | 44 | 1022.7 |
| 20260509032138 | 70 | 270 | 0.0 | 1.7 | 0.00 | 0.00 | 0.00 | 42 | 1022.7 |
| 20260509031639 | 69 | 158 | 1.7 | 2.6 | 0.00 | 0.00 | 0.00 | 42 | 1022.8 |
| 20260509031139 | 69 | 180 | 1.7 | 3.5 | 0.00 | 0.00 | 0.00 | 41 | 1022.8 |
| 20260509030641 | 69 | 225 | 2.6 | 4.3 | 0.00 | 0.00 | 0.00 | 41 | 1022.9 |
| 20260509030142 | 70 | 270 | 3.5 | 4.3 | 0.00 | 0.00 | 0.00 | 39 | 1022.9 |
| 20260509025643 | 70 | 0 | 1.7 | 4.3 | 0.00 | 0.00 | 0.00 | 39 | 1023.0 |
| 20260509025138 | 71 | 225 | 1.7 | 4.3 | 0.00 | 0.00 | 0.00 | 36 | 1023.0 |
| 20260509024125 | 72 | 45 | 0.0 | 0.9 | 0.00 | 0.00 | 0.00 | 34 | 1023.2 |
| 20260509023346 | 72 | 270 | 0.9 | 1.7 | 0.00 | 0.00 | 0.00 | 34 | 1023.3 |
| 20260509022614 | 71 | 180 | 1.7 | 3.5 | 0.00 | 0.00 | 0.00 | 36 | 1023.4 |
| 20260509022115 | 71 | 225 | 1.7 | 6.1 | 0.00 | 0.00 | 0.00 | 35 | 1023.4 |
| 20260509021616 | 73 | 225 | 2.6 | 5.2 | 0.00 | 0.00 | 0.00 | 35 | 1023.5 |
| 20260509021117 | 74 | 225 | 0.0 | 1.7 | 0.00 | 0.00 | 0.00 | 34 | 1023.5 |
| 20260509020617 | 75 | 315 | 1.7 | 3.5 | 0.00 | 0.00 | 0.00 | 34 | 1023.6 |
| 20260509020119 | 74 | 225 | 0.0 | 0.9 | 0.00 | 0.00 | 0.00 | 34 | 1023.7 |
| 20260509015620 | 75 | 225 | 1.7 | 3.5 | 0.00 | 0.00 | 0.00 | 33 | 1023.8 |
| 20260509015115 | 76 | 225 | 0.0 | 1.7 | 0.00 | 0.00 | 0.00 | 34 | 1023.8 |
| 20260509014343 | 74 | 225 | 0.9 | 1.7 | 0.00 | 0.00 | 0.00 | 37 | 1023.9 |
| 20260509013844 | 74 | 180 | 1.7 | 4.3 | 0.00 | 0.00 | 0.00 | 37 | 1024.0 |
| 20260509013345 | 74 | 225 | 3.5 | 6.1 | 0.00 | 0.00 | 0.00 | 37 | 1024.1 |
| 20260509012846 | 73 | 270 | 0.9 | 1.7 | 0.00 | 0.00 | 0.00 | 39 | 1024.1 |
| 20260509012347 | 72 | 225 | 0.9 | 1.7 | 0.00 | 0.00 | 0.00 | 39 | 1024.2 |
| 20260509011841 | 71 | 180 | 3.5 | 4.3 | 0.00 | 0.00 | 0.00 | 41 | 1024.2 |
| 20260509011108 | 69 | 180 | 1.7 | 1.7 | 0.00 | 0.00 | 0.00 | 45 | 1024.2 |
| 20260509010609 | 69 | 180 | 0.9 | 3.5 | 0.00 | 0.00 | 0.00 | 46 | 1024.3 |
| 20260509010110 | 68 | 180 | 1.7 | 4.3 | 0.00 | 0.00 | 0.00 | 46 | 1024.3 |
| 20260509005611 | 69 | 225 | 0.9 | 1.7 | 0.00 | 0.00 | 0.00 | 47 | 1024.4 |
| 20260509005112 | 69 | 225 | 1.7 | 3.5 | 0.00 | 0.00 | 0.00 | 48 | 1024.4 |
| 20260509004613 | 68 | 225 | 2.6 | 4.3 | 0.00 | 0.00 | 0.00 | 48 | 1024.5 |
| 20260509004114 | 67 | 225 | 0.9 | 1.7 | 0.00 | 0.00 | 0.00 | 50 | 1024.5 |
| 20260509003614 | 66 | 225 | 1.7 | 4.3 | 0.00 | 0.00 | 0.00 | 51 | 1024.5 |
| 20260509003116 | 66 | 225 | 0.9 | 2.6 | 0.00 | 0.00 | 0.00 | 51 | 1024.5 |
| 20260509002617 | 67 | 180 | 2.6 | 4.3 | 0.00 | 0.00 | 0.00 | 51 | 1024.6 |
| 20260509002118 | 67 | 225 | 1.7 | 4.3 | 0.00 | 0.00 | 0.00 | 51 | 1024.6 |
| 20260509001619 | 67 | 270 | 0.9 | 2.6 | 0.00 | 0.00 | 0.00 | 51 | 1024.6 |
| 20260509001120 | 67 | 225 | 1.7 | 4.3 | 0.00 | 0.00 | 0.00 | 51 | 1024.6 |
| 20260509000621 | 67 | 158 | 1.7 | 4.3 | 0.00 | 0.00 | 0.00 | 52 | 1024.7 |
| 20260509000121 | 67 | 225 | 0.9 | 2.6 | 0.00 | 0.00 | 0.00 | 51 | 1024.6 |
| 20260508235622 | 67 | 225 | 0.0 | 1.7 | 0.00 | 0.00 | 0.00 | 51 | 1024.7 |
| 20260508235124 | 68 | 225 | 0.0 | 0.9 | 0.00 | 0.00 | 0.00 | 50 | 1024.7 |
| 20260508234625 | 68 | 270 | 0.0 | 0.9 | 0.00 | 0.00 | 0.00 | 49 | 1024.7 |
| 20260508234120 | 69 | 270 | 0.0 | 0.9 | 0.00 | 0.00 | 0.00 | 49 | 1024.7 |
| 20260508233348 | 67 | 270 | 0.0 | 0.9 | 0.00 | 0.00 | 0.00 | 52 | 1024.7 |
| 20260508232849 | 64 | 225 | 0.0 | 0.9 | 0.00 | 0.00 | 0.00 | 57 | 1024.6 |
| 20260508232344 | 62 | 225 | 0.0 | 0.9 | 0.00 | 0.00 | 0.00 | 59 | 1024.7 |
| 20260508231611 | 63 | 270 | 0.0 | 0.9 | 0.00 | 0.00 | 0.00 | 57 | 1024.6 |
| 20260508231105 | 63 | 270 | 0.0 | 0.9 | 0.00 | 0.00 | 0.00 | 58 | 1024.6 |
| 20260508225313 | 63 | 270 | 0.0 | 0.9 | 0.00 | 0.00 | 0.00 | 58 | 1024.6 |
| 20260508224306 | 62 | 270 | 0.0 | 0.0 | 0.00 | 0.00 | 0.00 | 64 | 1024.6 |
| 20260508223808 | 59 | 270 | 0.0 | 0.0 | 0.00 | 0.00 | 0.00 | 66 | 1024.6 |
| 20260508223309 | 58 | 270 | 0.0 | 0.9 | 0.00 | 0.00 | 0.00 | 69 | 1024.5 |
| 20260508222810 | 57 | 315 | 0.0 | 0.9 | 0.00 | 0.00 | 0.00 | 69 | 1024.5 |
| 20260508222311 | 56 | 315 | 0.0 | 0.9 | 0.00 | 0.00 | 0.00 | 71 | 1024.4 |
| 20260508221812 | 56 | 270 | 0.0 | 0.9 | 0.00 | 0.00 | 0.00 | 71 | 1024.4 |
| 20260508221313 | 56 | 270 | 0.0 | 0.9 | 0.00 | 0.00 | 0.00 | 71 | 1024.3 |
| 20260508220814 | 55 | 270 | 0.0 | 0.0 | 0.00 | 0.00 | 0.00 | 70 | 1024.2 |
| 20260508220314 | 55 | 270 | 0.0 | 0.9 | 0.00 | 0.00 | 0.00 | 70 | 1024.2 |
| 20260508215815 | 55 | 270 | 0.0 | 0.9 | 0.00 | 0.00 | 0.00 | 70 | 1024.2 |
| 20260508215316 | 55 | 270 | 0.0 | 0.9 | 0.00 | 0.00 | 0.00 | 70 | 1024.2 |
| 20260508214816 | 54 | 270 | 0.0 | 0.9 | 0.00 | 0.00 | 0.00 | 70 | 1024.1 |
| 20260508214311 | 54 | 315 | 0.0 | 0.9 | 0.00 | 0.00 | 0.00 | 70 | 1024.1 |
| 20260508213538 | 54 | 315 | 0.0 | 0.0 | 0.00 | 0.00 | 0.00 | 70 | 1023.9 |
| 20260508213033 | 54 | 270 | 0.0 | 0.9 | 0.00 | 0.00 | 0.00 | 70 | 1023.9 |
| 20260508212300 | 54 | 0 | 0.0 | 0.9 | 0.00 | 0.00 | 0.00 | 70 | 1023.8 |
| 20260508211802 | 54 | 0 | 0.0 | 0.9 | 0.00 | 0.00 | 0.00 | 71 | 1023.7 |
| 20260508211303 | 53 | 0 | 0.0 | 0.0 | 0.00 | 0.00 | 0.00 | 72 | 1023.7 |
| 20260508210804 | 53 | 315 | 0.0 | 0.0 | 0.00 | 0.00 | 0.00 | 72 | 1023.7 |
| 20260508210304 | 53 | 315 | 0.0 | 0.0 | 0.00 | 0.00 | 0.00 | 72 | 1023.6 |
| 20260508205806 | 53 | 0 | 0.0 | 0.9 | 0.00 | 0.00 | 0.00 | 72 | 1023.5 |
| 20260508205307 | 53 | 0 | 0.0 | 0.9 | 0.00 | 0.00 | 0.00 | 72 | 1023.4 |
| 20260508204808 | 53 | 315 | 0.0 | 0.0 | 0.00 | 0.00 | 0.00 | 72 | 1023.3 |
| 20260508204309 | 53 | 0 | 0.0 | 0.9 | 0.00 | 0.00 | 0.00 | 71 | 1023.2 |
| 20260508203810 | 54 | 0 | 0.0 | 0.0 | 0.00 | 0.00 | 0.00 | 70 | 1023.2 |
| 20260508203310 | 54 | 0 | 0.0 | 0.9 | 0.00 | 0.00 | 0.00 | 70 | 1023.1 |
| 20260508202806 | 53 | 0 | 0.0 | 0.0 | 0.00 | 0.00 | 0.00 | 72 | 1023.0 |
| 20260508201800 | 53 | 270 | 0.0 | 0.0 | 0.00 | 0.00 | 0.00 | 72 | 1023.0 |
| 20260508201301 | 53 | 270 | 0.0 | 0.9 | 0.00 | 0.00 | 0.00 | 72 | 1023.0 |
| 20260508200802 | 53 | 270 | 0.0 | 0.0 | 0.00 | 0.00 | 0.00 | 72 | 1022.9 |
| 20260508200256 | 53 | 270 | 0.0 | 0.0 | 0.00 | 0.00 | 0.00 | 72 | 1022.9 |
| 20260508195524 | 53 | 270 | 0.0 | 0.0 | 0.00 | 0.00 | 0.00 | 71 | 1022.7 |
| 20260508195024 | 53 | 270 | 0.0 | 0.0 | 0.00 | 0.00 | 0.00 | 72 | 1022.6 |
| 20260508194525 | 53 | 270 | 0.0 | 0.0 | 0.00 | 0.00 | 0.00 | 72 | 1022.5 |
| 20260508194025 | 53 | 270 | 0.0 | 0.0 | 0.00 | 0.00 | 0.00 | 72 | 1022.4 |
| 20260508193525 | 53 | 315 | 0.0 | 0.0 | 0.00 | 0.00 | 0.00 | 72 | 1022.4 |
| 20260508193027 | 53 | 315 | 0.0 | 0.9 | 0.00 | 0.00 | 0.00 | 72 | 1022.4 |
| 20260508192528 | 53 | 225 | 0.0 | 0.9 | 0.00 | 0.00 | 0.00 | 72 | 1022.3 |
| 20260508192029 | 53 | 270 | 0.0 | 0.9 | 0.00 | 0.00 | 0.00 | 72 | 1022.1 |
| 20260508191530 | 53 | 315 | 0.0 | 0.0 | 0.00 | 0.00 | 0.00 | 72 | 1022.2 |
| 20260508191025 | 53 | 315 | 0.0 | 0.9 | 0.00 | 0.00 | 0.00 | 72 | 1022.1 |
| 20260508190253 | 52 | 225 | 0.0 | 0.9 | 0.00 | 0.00 | 0.00 | 72 | 1022.1 |
| 20260508185754 | 52 | 225 | 0.0 | 0.9 | 0.00 | 0.00 | 0.00 | 72 | 1022.2 |
| 20260508185254 | 52 | 225 | 0.0 | 0.9 | 0.00 | 0.00 | 0.00 | 72 | 1022.1 |
| 20260508184756 | 52 | 225 | 0.0 | 0.9 | 0.00 | 0.00 | 0.00 | 72 | 1022.1 |
| 20260508184251 | 52 | 225 | 0.0 | 0.9 | 0.00 | 0.00 | 0.00 | 72 | 1022.0 |
| 20260508183517 | 52 | 315 | 0.0 | 0.0 | 0.00 | 0.00 | 0.00 | 71 | 1022.1 |
| 20260508183019 | 53 | 315 | 0.0 | 0.9 | 0.00 | 0.00 | 0.00 | 71 | 1022.1 |
| 20260508182520 | 53 | 315 | 0.0 | 0.0 | 0.00 | 0.00 | 0.00 | 71 | 1022.1 |
| 20260508182021 | 53 | 315 | 0.0 | 0.9 | 0.00 | 0.00 | 0.00 | 71 | 1022.1 |
| 20260508181522 | 53 | 315 | 0.0 | 0.9 | 0.00 | 0.00 | 0.00 | 71 | 1022.1 |
| 20260508181023 | 53 | 225 | 0.0 | 0.9 | 0.00 | 0.00 | 0.00 | 70 | 1022.0 |
| 20260508180523 | 53 | 315 | 0.0 | 0.0 | 0.00 | 0.00 | 0.00 | 70 | 1021.9 |
| 20260508180025 | 53 | 315 | 0.0 | 0.9 | 0.00 | 0.00 | 0.00 | 70 | 1021.9 |
| 20260508175526 | 53 | 315 | 0.0 | 0.0 | 0.00 | 0.00 | 0.00 | 70 | 1021.9 |
| 20260508175027 | 53 | 270 | 0.0 | 0.9 | 0.00 | 0.00 | 0.00 | 70 | 1021.8 |
| 20260508174527 | 53 | 270 | 0.0 | 0.9 | 0.00 | 0.00 | 0.00 | 70 | 1021.9 |
| 20260508174028 | 54 | 315 | 0.0 | 0.9 | 0.00 | 0.00 | 0.00 | 69 | 1021.8 |
| 20260508173530 | 54 | 315 | 0.0 | 0.9 | 0.00 | 0.00 | 0.00 | 69 | 1021.8 |
| 20260508173031 | 53 | 315 | 0.0 | 0.9 | 0.00 | 0.00 | 0.00 | 70 | 1021.9 |
| 20260508172532 | 53 | 315 | 0.0 | 0.9 | 0.00 | 0.00 | 0.00 | 70 | 1021.9 |
| 20260508172033 | 53 | 315 | 0.0 | 0.0 | 0.00 | 0.00 | 0.00 | 70 | 1021.8 |
| 20260508171534 | 53 | 315 | 0.0 | 0.9 | 0.00 | 0.00 | 0.00 | 70 | 1021.8 |
| 20260508171035 | 53 | 315 | 0.0 | 0.9 | 0.00 | 0.00 | 0.00 | 70 | 1021.8 |
| 20260508170529 | 53 | 315 | 0.0 | 0.9 | 0.00 | 0.00 | 0.00 | 70 | 1021.7 |
| 20260508165249 | 53 | 270 | 0.0 | 0.9 | 0.00 | 0.00 | 0.00 | 70 | 1021.6 |
| 20260508164749 | 53 | 135 | 0.0 | 0.9 | 0.00 | 0.00 | 0.00 | 69 | 1021.6 |
| 20260508164250 | 53 | 315 | 0.0 | 1.7 | 0.00 | 0.00 | 0.00 | 69 | 1021.6 |
| 20260508163752 | 53 | 270 | 0.0 | 0.0 | 0.00 | 0.00 | 0.00 | 69 | 1021.7 |
| 20260508163253 | 53 | 270 | 0.0 | 0.9 | 0.00 | 0.00 | 0.00 | 69 | 1021.8 |
| 20260508162753 | 54 | 315 | 0.0 | 0.0 | 0.00 | 0.00 | 0.00 | 68 | 1021.7 |
| 20260508162254 | 54 | 315 | 0.0 | 1.7 | 0.00 | 0.00 | 0.00 | 67 | 1021.7 |
| 20260508161750 | 54 | 270 | 0.0 | 0.0 | 0.00 | 0.00 | 0.00 | 67 | 1021.8 |
| 20260508161016 | 55 | 270 | 0.0 | 0.9 | 0.00 | 0.00 | 0.00 | 66 | 1021.8 |
| 20260508160518 | 55 | 315 | 0.0 | 0.9 | 0.00 | 0.00 | 0.00 | 66 | 1021.8 |
| 20260508160019 | 55 | 270 | 0.0 | 0.9 | 0.00 | 0.00 | 0.00 | 67 | 1021.8 |
| 20260508155514 | 54 | 315 | 0.0 | 0.9 | 0.00 | 0.00 | 0.00 | 67 | 1021.8 |
| 20260508154741 | 55 | 0 | 0.0 | 0.0 | 0.00 | 0.00 | 0.00 | 67 | 1021.7 |
| 20260508154243 | 54 | 0 | 0.0 | 0.9 | 0.00 | 0.00 | 0.00 | 67 | 1021.7 |
| 20260508153744 | 55 | 315 | 0.0 | 0.0 | 0.00 | 0.00 | 0.00 | 66 | 1021.7 |
| 20260508153245 | 55 | 45 | 0.0 | 0.9 | 0.00 | 0.00 | 0.00 | 66 | 1021.7 |
| 20260508152745 | 55 | 45 | 0.0 | 0.9 | 0.00 | 0.00 | 0.00 | 66 | 1021.7 |
| 20260508152247 | 55 | 315 | 0.0 | 0.9 | 0.00 | 0.00 | 0.00 | 65 | 1021.7 |
| 20260508151741 | 55 | 45 | 0.0 | 0.9 | 0.00 | 0.00 | 0.00 | 65 | 1021.7 |
| 20260508151008 | 55 | 0 | 0.0 | 0.9 | 0.00 | 0.00 | 0.00 | 65 | 1021.7 |
| 20260508150504 | 55 | 0 | 0.0 | 0.0 | 0.00 | 0.00 | 0.00 | 65 | 1021.7 |
| 20260508145458 | 55 | 0 | 0.0 | 0.9 | 0.00 | 0.00 | 0.00 | 64 | 1021.7 |
| 20260508144958 | 55 | 0 | 0.0 | 0.9 | 0.00 | 0.00 | 0.00 | 64 | 1021.6 |
| 20260508144500 | 55 | 315 | 0.0 | 0.9 | 0.00 | 0.00 | 0.00 | 64 | 1021.5 |
| 20260508144001 | 55 | 315 | 0.0 | 0.0 | 0.00 | 0.00 | 0.00 | 64 | 1021.5 |
| 20260508143502 | 56 | 315 | 0.0 | 0.9 | 0.00 | 0.00 | 0.00 | 63 | 1021.5 |
| 20260508143003 | 56 | 315 | 0.0 | 0.9 | 0.00 | 0.00 | 0.00 | 63 | 1021.5 |
| 20260508142504 | 56 | 315 | 0.0 | 0.0 | 0.00 | 0.00 | 0.00 | 63 | 1021.4 |
| 20260508141958 | 55 | 315 | 0.0 | 0.9 | 0.00 | 0.00 | 0.00 | 63 | 1021.4 |
| 20260508141226 | 56 | 270 | 0.0 | 0.9 | 0.00 | 0.00 | 0.00 | 63 | 1021.4 |
| 20260508140727 | 56 | 270 | 0.0 | 0.9 | 0.00 | 0.00 | 0.00 | 63 | 1021.4 |
| 20260508140227 | 56 | 270 | 0.0 | 0.9 | 0.00 | 0.00 | 0.00 | 63 | 1021.4 |
| 20260508135729 | 56 | 270 | 0.9 | 1.7 | 0.00 | 0.00 | 0.00 | 63 | 1021.4 |
| 20260508135230 | 56 | 270 | 0.0 | 0.9 | 0.00 | 0.00 | 0.00 | 63 | 1021.3 |
| 20260508134731 | 56 | 270 | 0.0 | 0.0 | 0.00 | 0.00 | 0.00 | 63 | 1021.3 |
| 20260508134232 | 56 | 270 | 0.0 | 0.9 | 0.00 | 0.00 | 0.00 | 63 | 1021.3 |
| 20260508133733 | 56 | 270 | 0.0 | 0.9 | 0.00 | 0.00 | 0.00 | 63 | 1021.3 |
| 20260508133233 | 56 | 270 | 0.0 | 0.9 | 0.00 | 0.00 | 0.00 | 63 | 1021.3 |
| 20260508132734 | 56 | 270 | 0.0 | 0.9 | 0.00 | 0.00 | 0.00 | 63 | 1021.3 |
| 20260508132236 | 56 | 270 | 0.0 | 1.7 | 0.00 | 0.00 | 0.00 | 63 | 1021.3 |
| 20260508131737 | 55 | 270 | 0.9 | 1.7 | 0.00 | 0.00 | 0.00 | 63 | 1021.3 |
| 20260508131238 | 55 | 270 | 0.9 | 1.7 | 0.00 | 0.00 | 0.00 | 63 | 1021.3 |
| 20260508130739 | 55 | 270 | 0.0 | 0.9 | 0.00 | 0.00 | 0.00 | 63 | 1021.3 |
| 20260508130240 | 55 | 270 | 0.9 | 1.7 | 0.00 | 0.00 | 0.00 | 63 | 1021.3 |
| 20260508125740 | 56 | 270 | 0.0 | 0.9 | 0.00 | 0.00 | 0.00 | 63 | 1021.3 |
| 20260508125240 | 56 | 270 | 0.0 | 1.7 | 0.00 | 0.00 | 0.00 | 63 | 1021.3 |
| 20260508124740 | 56 | 270 | 0.0 | 0.9 | 0.00 | 0.00 | 0.00 | 63 | 1021.2 |
| 20260508124242 | 56 | 315 | 0.0 | 0.9 | 0.00 | 0.00 | 0.00 | 63 | 1021.2 |
| 20260508123743 | 55 | 315 | 0.0 | 0.9 | 0.00 | 0.00 | 0.00 | 62 | 1021.3 |
| 20260508123244 | 55 | 270 | 0.0 | 1.7 | 0.00 | 0.00 | 0.00 | 62 | 1021.3 |
| 20260508122745 | 56 | 270 | 0.0 | 0.9 | 0.00 | 0.00 | 0.00 | 62 | 1021.2 |
| 20260508122246 | 56 | 270 | 0.0 | 1.7 | 0.00 | 0.00 | 0.00 | 62 | 1021.3 |
| 20260508121747 | 56 | 270 | 0.0 | 0.9 | 0.00 | 0.00 | 0.00 | 61 | 1021.3 |
| 20260508121248 | 56 | 270 | 0.0 | 0.9 | 0.00 | 0.00 | 0.00 | 62 | 1021.3 |
| 20260508120749 | 56 | 225 | 0.0 | 0.9 | 0.00 | 0.00 | 0.00 | 61 | 1021.3 |
| 20260508120249 | 56 | 270 | 0.0 | 0.9 | 0.00 | 0.00 | 0.00 | 61 | 1021.3 |
| 20260508115751 | 56 | 225 | 0.0 | 0.9 | 0.00 | 0.00 | 0.00 | 61 | 1021.3 |
| 20260508115252 | 57 | 270 | 0.0 | 0.9 | 0.00 | 0.00 | 0.00 | 60 | 1021.2 |
| 20260508114753 | 57 | 270 | 0.0 | 1.7 | 0.00 | 0.00 | 0.00 | 60 | 1021.1 |
| 20260508114254 | 56 | 270 | 0.0 | 1.7 | 0.00 | 0.00 | 0.00 | 60 | 1021.0 |
| 20260508113749 | 56 | 270 | 0.0 | 0.9 | 0.00 | 0.00 | 0.00 | 59 | 1020.9 |
| 20260508113017 | 57 | 270 | 0.9 | 1.7 | 0.00 | 0.00 | 0.00 | 58 | 1021.2 |
| 20260508112518 | 57 | 270 | 0.0 | 0.9 | 0.00 | 0.00 | 0.00 | 58 | 1021.3 |
| 20260508112018 | 57 | 270 | 0.0 | 0.9 | 0.00 | 0.00 | 0.00 | 58 | 1021.2 |
| 20260508111520 | 58 | 270 | 0.0 | 0.9 | 0.00 | 0.00 | 0.00 | 57 | 1021.3 |
| 20260508111021 | 58 | 270 | 0.0 | 0.9 | 0.00 | 0.00 | 0.00 | 57 | 1021.2 |
| 20260508110522 | 58 | 315 | 0.0 | 1.7 | 0.00 | 0.00 | 0.00 | 57 | 1021.2 |
| 20260508110023 | 57 | 180 | 0.0 | 0.9 | 0.00 | 0.00 | 0.00 | 57 | 1021.1 |
| 20260508105524 | 57 | 45 | 0.0 | 0.9 | 0.00 | 0.00 | 0.00 | 57 | 1021.1 |
| 20260508105025 | 58 | 315 | 0.0 | 0.0 | 0.00 | 0.00 | 0.00 | 56 | 1021.0 |
| 20260508104526 | 58 | 270 | 0.0 | 0.0 | 0.00 | 0.00 | 0.00 | 56 | 1020.9 |
| 20260508104026 | 58 | 270 | 0.0 | 0.9 | 0.00 | 0.00 | 0.00 | 55 | 1020.8 |
| 20260508103528 | 58 | 270 | 0.0 | 0.9 | 0.00 | 0.00 | 0.00 | 55 | 1020.8 |
| 20260508103029 | 58 | 225 | 0.0 | 1.7 | 0.00 | 0.00 | 0.00 | 55 | 1020.7 |
| 20260508102530 | 58 | 270 | 0.0 | 0.9 | 0.00 | 0.00 | 0.00 | 55 | 1020.7 |
| 20260508102025 | 59 | 68 | 0.0 | 1.7 | 0.00 | 0.00 | 0.00 | 55 | 1020.6 |
| 20260508101253 | 59 | 180 | 0.0 | 1.7 | 0.00 | 0.00 | 0.00 | 55 | 1020.5 |
| 20260508100754 | 59 | 225 | 0.0 | 1.7 | 0.00 | 0.00 | 0.00 | 55 | 1020.5 |
| 20260508100254 | 59 | 315 | 0.0 | 1.7 | 0.00 | 0.00 | 0.00 | 55 | 1020.5 |
| 20260508095755 | 59 | 90 | 0.9 | 2.6 | 0.00 | 0.00 | 0.00 | 55 | 1020.4 |
| 20260508095251 | 59 | 180 | 0.9 | 2.6 | 0.00 | 0.00 | 0.00 | 54 | 1020.4 |
| 20260508094518 | 59 | 45 | 0.0 | 0.9 | 0.00 | 0.00 | 0.00 | 52 | 1020.3 |
| 20260508094020 | 60 | 315 | 0.0 | 0.9 | 0.00 | 0.00 | 0.00 | 52 | 1020.2 |
| 20260508093521 | 60 | 270 | 0.0 | 0.9 | 0.00 | 0.00 | 0.00 | 51 | 1020.0 |
| 20260508093022 | 61 | 270 | 0.0 | 0.9 | 0.00 | 0.00 | 0.00 | 51 | 1019.9 |
| 20260508092522 | 61 | 225 | 0.0 | 1.7 | 0.00 | 0.00 | 0.00 | 49 | 1019.9 |
| 20260508092023 | 61 | 225 | 0.9 | 1.7 | 0.00 | 0.00 | 0.00 | 49 | 1019.9 |
| 20260508091525 | 61 | 225 | 1.7 | 3.5 | 0.00 | 0.00 | 0.00 | 49 | 1019.9 |
| 20260508091026 | 62 | 225 | 1.7 | 4.3 | 0.00 | 0.00 | 0.00 | 49 | 1019.8 |
| 20260508090521 | 62 | 225 | 0.9 | 1.7 | 0.00 | 0.00 | 0.00 | 48 | 1019.8 |
| 20260508085749 | 62 | 203 | 1.7 | 2.6 | 0.00 | 0.00 | 0.00 | 47 | 1019.6 |
| 20260508085250 | 62 | 225 | 0.9 | 1.7 | 0.00 | 0.00 | 0.00 | 47 | 1019.5 |
| 20260508084751 | 62 | 225 | 1.7 | 2.6 | 0.00 | 0.00 | 0.00 | 46 | 1019.5 |
| 20260508084252 | 63 | 270 | 0.9 | 1.7 | 0.00 | 0.00 | 0.00 | 44 | 1019.4 |
| 20260508083752 | 63 | 270 | 1.7 | 1.7 | 0.00 | 0.00 | 0.00 | 44 | 1019.2 |
| 20260508083253 | 63 | 225 | 1.7 | 4.3 | 0.00 | 0.00 | 0.00 | 43 | 1019.1 |
| 20260508082753 | 64 | 225 | 0.9 | 2.6 | 0.00 | 0.00 | 0.00 | 43 | 1019.0 |
| 20260508082255 | 64 | 315 | 1.7 | 2.6 | 0.00 | 0.00 | 0.00 | 43 | 1018.9 |
| 20260508081756 | 64 | 180 | 1.7 | 2.6 | 0.00 | 0.00 | 0.00 | 43 | 1018.8 |
| 20260508081257 | 64 | 315 | 1.7 | 2.6 | 0.00 | 0.00 | 0.00 | 42 | 1018.7 |
| 20260508080758 | 64 | 135 | 1.7 | 1.7 | 0.00 | 0.00 | 0.00 | 42 | 1018.5 |
| 20260508080258 | 64 | 225 | 1.7 | 3.5 | 0.00 | 0.00 | 0.00 | 42 | 1018.4 |
| 20260508075800 | 65 | 135 | 1.7 | 4.3 | 0.00 | 0.00 | 0.00 | 42 | 1018.4 |
| 20260508075255 | 65 | 180 | 1.7 | 4.3 | 0.00 | 0.00 | 0.00 | 42 | 1018.3 |
| 20260508074522 | 65 | 248 | 1.7 | 3.5 | 0.00 | 0.00 | 0.00 | 42 | 1018.1 |
| 20260508074024 | 65 | 225 | 1.7 | 4.3 | 0.00 | 0.00 | 0.00 | 41 | 1018.0 |
| 20260508073519 | 65 | 315 | 1.7 | 3.5 | 0.00 | 0.00 | 0.00 | 41 | 1017.9 |
| 20260508072747 | 65 | 225 | 1.7 | 3.5 | 0.00 | 0.00 | 0.00 | 41 | 1017.7 |
| 20260508072248 | 65 | 225 | 1.7 | 2.6 | 0.00 | 0.00 | 0.00 | 40 | 1017.6 |
| 20260508071749 | 66 | 315 | 1.7 | 4.3 | 0.00 | 0.00 | 0.00 | 40 | 1017.6 |
| 20260508071250 | 66 | 225 | 1.7 | 3.5 | 0.00 | 0.00 | 0.00 | 39 | 1017.5 |
| 20260508070751 | 67 | 203 | 1.7 | 3.5 | 0.00 | 0.00 | 0.00 | 37 | 1017.4 |
| 20260508070245 | 67 | 225 | 1.7 | 2.6 | 0.00 | 0.00 | 0.00 | 36 | 1017.2 |
| 20260508065513 | 67 | 315 | 2.6 | 6.1 | 0.00 | 0.00 | 0.00 | 36 | 1017.1 |
| 20260508065014 | 67 | 225 | 3.5 | 5.2 | 0.00 | 0.00 | 0.00 | 36 | 1016.9 |